Location: Ottawa
(45.4167°N, 75.7000°W)
Time: 05:22:31
(UTC-04:00)

N. Korean satellite - Pass Details

Date: 16 October 2017
Orbit: 459 x 517 km, 97.2° (Epoch: 17 October)

Event Time Altitude Azimuth Distance (km) Brightness Sun altitude
Rises 20:11:47 0° 213° (SSW) 2,533 10.5 -21.2°
Reaches altitude 10° 20:14:57 10° 244° (WSW) 1,647 10.0 -21.7°
Maximum altitude 20:16:26 12° 269° (W) 1,512 10.1 -22.0°
Drops below altitude 10° 20:17:55 10° 294° (WNW) 1,641 10.3 -22.3°
Sets 20:21:04 0° 326° (NNW) 2,514 10.8 -22.8°
